Back to catalog

NOAA 16 DEB

AliveSSO
NORAD 41260·DEBRIS·🇺🇸 United States

Launched Sep 21, 2000 from Vandenberg Space Force Base

Loading…

Next Passes (next 24 hours)

TLE

AgingSource: Space-Track

Epoch: Sep 11, 2026, 04:24 UTC

1 41260U 00055FL  26254.18370953  .00001892  00000-0  84184-3 0  9996
2 41260  98.7624 335.8991 0021584 244.0105 115.8851 14.23980445554570

Track NOAA 16 DEB in real time with AllMySat

Download on the App Store